Tabellarische Ansicht des 1.4.2009


Die einzelnen Werte des Tages

Uhrzeit Temperatur Luftdruck Luftfeuchte Wind Hi-Wind Taupunkt THW Index Wind Chill Heat Index Solar- strahlung Regen

00:00

2.9 C

1021.3 hpa

89 %

0.0 km/h aus 113

0.0 km/h aus ---

1.3 C

2.9 C

2.9 C

2.9 C

0 W/m

0.00 mm

00:05

2.8 C

1021.3 hpa

89 %

0.0 km/h aus 63

0.0 km/h aus ---

1.2 C

2.8 C

2.8 C

2.8 C

0 W/m

0.00 mm

00:10

2.7 C

1021.3 hpa

89 %

0.0 km/h aus 114

0.0 km/h aus ---

1.1 C

2.7 C

2.7 C

2.7 C

0 W/m

0.00 mm

00:15

2.5 C

1021.3 hpa

90 %

1.6 km/h aus 112

3.2 km/h aus NNE

1.0 C

2.4 C

2.5 C

2.4 C

0 W/m

0.00 mm

00:20

2.4 C

1021.3 hpa

90 %

0.0 km/h aus 113

1.6 km/h aus NNE

1.0 C

2.4 C

2.4 C

2.4 C

0 W/m

0.00 mm

00:25

2.5 C

1021.3 hpa

90 %

0.0 km/h aus 103

0.0 km/h aus ---

1.0 C

2.4 C

2.5 C

2.4 C

0 W/m

0.00 mm

00:30

2.6 C

1021.2 hpa

91 %

0.0 km/h aus 107

0.0 km/h aus ---

1.2 C

2.5 C

2.6 C

2.5 C

0 W/m

0.00 mm

00:35

2.5 C

1021.2 hpa

90 %

0.0 km/h aus 111

0.0 km/h aus ---

1.0 C

2.4 C

2.5 C

2.4 C

0 W/m

0.00 mm

00:40

2.6 C

1021.2 hpa

91 %

0.0 km/h aus 111

0.0 km/h aus ---

1.2 C

2.5 C

2.6 C

2.5 C

0 W/m

0.00 mm

00:45

2.3 C

1021.1 hpa

90 %

0.0 km/h aus 105

0.0 km/h aus ---

0.9 C

2.3 C

2.3 C

2.3 C

0 W/m

0.00 mm

00:50

2.3 C

1021.1 hpa

90 %

0.0 km/h aus 109

1.6 km/h aus NNE

0.8 C

2.2 C

2.3 C

2.2 C

0 W/m

0.00 mm

00:55

2.2 C

1021.1 hpa

91 %

0.0 km/h aus 108

0.0 km/h aus ---

0.9 C

2.2 C

2.2 C

2.2 C

0 W/m

0.00 mm

01:00

2.2 C

1020.9 hpa

91 %

0.0 km/h aus 108

0.0 km/h aus ---

0.8 C

2.1 C

2.2 C

2.1 C

0 W/m

0.00 mm

01:05

2.2 C

1020.9 hpa

91 %

0.0 km/h aus 107

0.0 km/h aus ---

0.8 C

2.1 C

2.2 C

2.1 C

0 W/m

0.00 mm

01:10

1.9 C

1020.9 hpa

91 %

0.0 km/h aus 104

0.0 km/h aus ---

0.6 C

1.9 C

1.9 C

1.9 C

0 W/m

0.00 mm

01:15

1.9 C

1020.9 hpa

91 %

0.0 km/h aus 109

0.0 km/h aus ---

0.6 C

1.9 C

1.9 C

1.9 C

0 W/m

0.00 mm

01:20

2.1 C

1020.9 hpa

92 %

0.0 km/h aus 107

0.0 km/h aus ---

0.9 C

2.0 C

2.1 C

2.0 C

0 W/m

0.00 mm

01:25

1.9 C

1020.9 hpa

92 %

0.0 km/h aus 105

3.2 km/h aus NNE

0.8 C

1.9 C

1.9 C

1.9 C

0 W/m

0.00 mm

01:30

1.9 C

1020.9 hpa

91 %

0.0 km/h aus 110

1.6 km/h aus NNE

0.6 C

1.8 C

1.9 C

1.8 C

0 W/m

0.00 mm

01:35

1.8 C

1020.9 hpa

92 %

0.0 km/h aus 110

0.0 km/h aus ---

0.7 C

1.8 C

1.8 C

1.8 C

0 W/m

0.00 mm

01:40

1.8 C

1020.9 hpa

92 %

0.0 km/h aus 106

0.0 km/h aus ---

0.6 C

1.7 C

1.8 C

1.7 C

0 W/m

0.00 mm

01:45

1.8 C

1020.8 hpa

92 %

0.0 km/h aus 106

0.0 km/h aus ---

0.6 C

1.7 C

1.8 C

1.7 C

0 W/m

0.00 mm

01:50

1.8 C

1020.8 hpa

92 %

0.0 km/h aus 107

0.0 km/h aus ---

0.6 C

1.7 C

1.8 C

1.7 C

0 W/m

0.00 mm

01:55

1.7 C

1020.8 hpa

92 %

0.0 km/h aus 111

0.0 km/h aus ---

0.6 C

1.7 C

1.7 C

1.7 C

0 W/m

0.00 mm

02:00

1.7 C

1020.8 hpa

92 %

0.0 km/h aus 111

0.0 km/h aus ---

0.6 C

1.7 C

1.7 C

1.7 C

0 W/m

0.00 mm

02:05

1.6 C

1020.8 hpa

92 %

0.0 km/h aus 110

0.0 km/h aus ---

0.5 C

1.6 C

1.6 C

1.6 C

0 W/m

0.00 mm

02:10

1.6 C

1020.8 hpa

92 %

0.0 km/h aus 110

0.0 km/h aus ---

0.4 C

1.5 C

1.6 C

1.5 C

0 W/m

0.00 mm

02:15

1.3 C

1020.8 hpa

92 %

0.0 km/h aus 113

0.0 km/h aus ---

0.2 C

1.3 C

1.3 C

1.3 C

0 W/m

0.00 mm

02:20

1.3 C

1020.8 hpa

92 %

0.0 km/h aus 110

0.0 km/h aus ---

0.2 C

1.3 C

1.3 C

1.3 C

0 W/m

0.00 mm

02:25

1.3 C

1020.8 hpa

92 %

0.0 km/h aus 111

0.0 km/h aus ---

0.2 C

1.3 C

1.3 C

1.3 C

0 W/m

0.00 mm

02:30

1.2 C

1020.7 hpa

92 %

0.0 km/h aus 111

0.0 km/h aus ---

0.1 C

1.2 C

1.2 C

1.2 C

0 W/m

0.00 mm

02:35

1.2 C

1020.7 hpa

92 %

0.0 km/h aus 109

0.0 km/h aus ---

0.0 C

1.1 C

1.2 C

1.1 C

0 W/m

0.00 mm

02:40

1.3 C

1020.7 hpa

93 %

0.0 km/h aus 107

0.0 km/h aus ---

0.3 C

1.3 C

1.3 C

1.3 C

0 W/m

0.00 mm

02:45

1.3 C

1020.7 hpa

92 %

0.0 km/h aus 110

0.0 km/h aus ---

0.1 C

1.2 C

1.3 C

1.2 C

0 W/m

0.00 mm

02:50

1.3 C

1020.7 hpa

93 %

3.2 km/h aus 104

6.4 km/h aus NNE

0.3 C

0.8 C

0.9 C

1.3 C

0 W/m

0.00 mm

02:55

1.4 C

1020.7 hpa

93 %

1.6 km/h aus 110

4.8 km/h aus NNE

0.4 C

1.3 C

1.4 C

1.3 C

0 W/m

0.00 mm

03:00

1.5 C

1020.8 hpa

93 %

1.6 km/h aus 112

3.2 km/h aus NNE

0.5 C

1.4 C

1.5 C

1.4 C

0 W/m

0.00 mm

03:05

1.6 C

1020.8 hpa

93 %

0.0 km/h aus 108

3.2 km/h aus NNE

0.5 C

1.5 C

1.6 C

1.5 C

0 W/m

0.00 mm

03:10

1.4 C

1020.8 hpa

93 %

0.0 km/h aus 110

1.6 km/h aus NNE

0.4 C

1.3 C

1.4 C

1.3 C

0 W/m

0.00 mm

03:15

1.2 C

1020.8 hpa

92 %

0.0 km/h aus 109

1.6 km/h aus NNE

0.0 C

1.1 C

1.2 C

1.1 C

0 W/m

0.00 mm

03:20

1.2 C

1020.8 hpa

93 %

0.0 km/h aus 108

0.0 km/h aus ---

0.2 C

1.1 C

1.2 C

1.1 C

0 W/m

0.00 mm

03:25

1.1 C

1020.8 hpa

93 %

0.0 km/h aus 112

0.0 km/h aus ---

0.1 C

1.1 C

1.1 C

1.1 C

0 W/m

0.00 mm

03:30

1.1 C

1020.8 hpa

93 %

0.0 km/h aus 112

0.0 km/h aus ---

0.1 C

1.0 C

1.1 C

1.0 C

0 W/m

0.00 mm

03:35

0.9 C

1020.8 hpa

93 %

0.0 km/h aus 110

1.6 km/h aus NNE

-0.1 C

0.8 C

0.9 C

0.8 C

0 W/m

0.00 mm

03:40

0.7 C

1020.8 hpa

93 %

1.6 km/h aus 102

3.2 km/h aus NNE

-0.3 C

0.6 C

0.7 C

0.6 C

0 W/m

0.00 mm

03:45

0.6 C

1020.8 hpa

93 %

3.2 km/h aus 113

6.4 km/h aus NNE

-0.4 C

0.1 C

0.1 C

0.6 C

0 W/m

0.00 mm

03:50

0.5 C

1020.8 hpa

93 %

3.2 km/h aus 96

4.8 km/h aus NNE

-0.5 C

-0.1 C

0.0 C

0.4 C

0 W/m

0.00 mm

03:55

0.5 C

1020.8 hpa

93 %

3.2 km/h aus 106

4.8 km/h aus NNE

-0.5 C

-0.1 C

0.0 C

0.4 C

0 W/m

0.00 mm

04:00

0.6 C

1020.8 hpa

93 %

1.6 km/h aus 105

3.2 km/h aus NNE

-0.4 C

0.5 C

0.6 C

0.5 C

0 W/m

0.00 mm

04:05

0.5 C

1020.8 hpa

93 %

3.2 km/h aus 104

3.2 km/h aus NNE

-0.5 C

-0.1 C

0.0 C

0.4 C

0 W/m

0.00 mm

04:10

0.7 C

1020.8 hpa

94 %

1.6 km/h aus 100

3.2 km/h aus NNE

-0.2 C

0.6 C

0.7 C

0.6 C

0 W/m

0.00 mm

04:15

0.7 C

1020.8 hpa

93 %

0.0 km/h aus 103

0.0 km/h aus ---

-0.3 C

0.7 C

0.7 C

0.7 C

0 W/m

0.00 mm

04:20

0.7 C

1020.8 hpa

93 %

0.0 km/h aus 101

0.0 km/h aus ---

-0.3 C

0.6 C

0.7 C

0.6 C

0 W/m

0.00 mm

04:25

0.7 C

1020.8 hpa

94 %

0.0 km/h aus 102

0.0 km/h aus ---

-0.2 C

0.6 C

0.7 C

0.6 C

0 W/m

0.00 mm

04:30

0.7 C

1020.8 hpa

94 %

0.0 km/h aus 103

0.0 km/h aus ---

-0.2 C

0.6 C

0.7 C

0.6 C

0 W/m

0.00 mm

04:35

0.7 C

1020.8 hpa

94 %

0.0 km/h aus 104

0.0 km/h aus ---

-0.2 C

0.6 C

0.7 C

0.6 C

0 W/m

0.00 mm

04:40

0.6 C

1020.8 hpa

94 %

0.0 km/h aus 105

0.0 km/h aus ---

-0.3 C

0.5 C

0.6 C

0.5 C

0 W/m

0.00 mm

04:45

0.6 C

1020.7 hpa

94 %

0.0 km/h aus 102

0.0 km/h aus ---

-0.2 C

0.6 C

0.6 C

0.6 C

0 W/m

0.00 mm

04:50

0.6 C

1020.7 hpa

94 %

0.0 km/h aus 109

0.0 km/h aus ---

-0.3 C

0.5 C

0.6 C

0.5 C

0 W/m

0.00 mm

04:55

0.6 C

1020.7 hpa

94 %

0.0 km/h aus 106

0.0 km/h aus ---

-0.3 C

0.5 C

0.6 C

0.5 C

0 W/m

0.00 mm

05:00

0.6 C

1020.5 hpa

94 %

0.0 km/h aus 101

0.0 km/h aus ---

-0.3 C

0.5 C

0.6 C

0.5 C

0 W/m

0.00 mm

05:05

0.5 C

1020.5 hpa

94 %

0.0 km/h aus 99

0.0 km/h aus ---

-0.4 C

0.4 C

0.5 C

0.4 C

0 W/m

0.00 mm

05:10

0.3 C

1020.5 hpa

93 %

0.0 km/h aus 107

0.0 km/h aus ---

-0.7 C

0.3 C

0.3 C

0.3 C

0 W/m

0.00 mm

05:15

0.3 C

1020.5 hpa

93 %

0.0 km/h aus 103

0.0 km/h aus ---

-0.7 C

0.2 C

0.3 C

0.2 C

0 W/m

0.00 mm

05:20

0.3 C

1020.5 hpa

94 %

0.0 km/h aus 107

0.0 km/h aus ---

-0.5 C

0.3 C

0.3 C

0.3 C

0 W/m

0.00 mm

05:25

0.2 C

1020.5 hpa

94 %

0.0 km/h aus 115

0.0 km/h aus ---

-0.7 C

0.1 C

0.2 C

0.1 C

0 W/m

0.00 mm

05:30

0.0 C

1020.5 hpa

93 %

0.0 km/h aus 108

0.0 km/h aus ---

-1.0 C

-0.1 C

0.0 C

-0.1 C

0 W/m

0.00 mm

05:35

-0.1 C

1020.5 hpa

94 %

0.0 km/h aus 108

0.0 km/h aus ---

-0.9 C

-0.1 C

-0.1 C

-0.1 C

0 W/m

0.00 mm

05:40

0.0 C

1020.5 hpa

94 %

0.0 km/h aus 108

0.0 km/h aus ---

-0.9 C

-0.1 C

0.0 C

-0.1 C

0 W/m

0.00 mm

05:45

-0.1 C

1020.5 hpa

94 %

0.0 km/h aus 110

0.0 km/h aus ---

-0.9 C

-0.1 C

-0.1 C

-0.1 C

0 W/m

0.00 mm

05:50

-0.1 C

1020.5 hpa

94 %

0.0 km/h aus 113

0.0 km/h aus ---

-0.9 C

-0.1 C

-0.1 C

-0.1 C

0 W/m

0.00 mm

05:55

0.1 C

1020.5 hpa

94 %

0.0 km/h aus 113

0.0 km/h aus ---

-0.8 C

0.0 C

0.1 C

0.0 C

0 W/m

0.00 mm

06:00

0.0 C

1020.4 hpa

94 %

0.0 km/h aus 110

0.0 km/h aus ---

-0.9 C

-0.1 C

0.0 C

-0.1 C

0 W/m

0.00 mm

06:05

-0.1 C

1020.4 hpa

94 %

1.6 km/h aus 108

3.2 km/h aus NNE

-0.9 C

-0.1 C

-0.1 C

-0.1 C

0 W/m

0.00 mm

06:10

-0.2 C

1020.4 hpa

94 %

0.0 km/h aus 106

3.2 km/h aus NNE

-1.1 C

-0.3 C

-0.2 C

-0.3 C

0 W/m

0.00 mm

06:15

-0.1 C

1020.7 hpa

94 %

1.6 km/h aus 111

6.4 km/h aus NNE

-0.9 C

-0.1 C

-0.1 C

-0.1 C

0 W/m

0.00 mm

06:20

0.2 C

1020.7 hpa

94 %

3.2 km/h aus 111

6.4 km/h aus NNE

-0.6 C

-0.4 C

-0.3 C

0.2 C

0 W/m

0.00 mm

06:25

0.4 C

1020.7 hpa

94 %

1.6 km/h aus 106

4.8 km/h aus NNE

-0.4 C

0.4 C

0.4 C

0.4 C

0 W/m

0.00 mm

06:30

0.4 C

1020.8 hpa

94 %

0.0 km/h aus 109

3.2 km/h aus NNE

-0.4 C

0.4 C

0.4 C

0.4 C

0 W/m

0.00 mm

06:35

0.4 C

1020.8 hpa

94 %

0.0 km/h aus 108

0.0 km/h aus ---

-0.5 C

0.3 C

0.4 C

0.3 C

0 W/m

0.00 mm

06:40

0.2 C

1020.8 hpa

94 %

0.0 km/h aus 114

0.0 km/h aus ---

-0.6 C

0.2 C

0.2 C

0.2 C

0 W/m

0.00 mm

06:45

0.1 C

1020.8 hpa

94 %

0.0 km/h aus 111

0.0 km/h aus ---

-0.8 C

0.0 C

0.1 C

0.0 C

0 W/m

0.00 mm

06:50

0.0 C

1020.8 hpa

94 %

0.0 km/h aus 109

0.0 km/h aus ---

-0.9 C

-0.1 C

0.0 C

-0.1 C

0 W/m

0.00 mm

06:55

-0.1 C

1020.8 hpa

94 %

0.0 km/h aus 113

0.0 km/h aus ---

-0.9 C

-0.1 C

-0.1 C

-0.1 C

0 W/m

0.00 mm

07:00

-0.4 C

1020.7 hpa

94 %

1.6 km/h aus 115

4.8 km/h aus NNE

-1.2 C

-0.4 C

-0.4 C

-0.4 C

0 W/m

0.00 mm

07:05

-0.6 C

1020.7 hpa

94 %

6.4 km/h aus 111

9.7 km/h aus NE

-1.5 C

-2.9 C

-2.9 C

-0.7 C

0 W/m

0.00 mm

07:10

-0.6 C

1020.7 hpa

100 %

6.4 km/h aus 110

8.0 km/h aus ESE

-0.6 C

-2.9 C

-2.9 C

-0.6 C

0 W/m

0.00 mm

07:15

-0.4 C

1020.8 hpa

94 %

3.2 km/h aus 113

6.4 km/h aus ESE

-1.3 C

-1.1 C

-1.1 C

-0.5 C

0 W/m

0.00 mm

07:20

-0.3 C

1020.8 hpa

94 %

3.2 km/h aus 106

6.4 km/h aus ESE

-1.1 C

-0.9 C

-0.9 C

-0.3 C

0 W/m

0.00 mm

07:25

-0.1 C

1020.8 hpa

94 %

1.6 km/h aus 110

3.2 km/h aus ESE

-1.0 C

-0.2 C

-0.1 C

-0.2 C

0 W/m

0.00 mm

07:30

-0.1 C

1020.8 hpa

94 %

0.0 km/h aus 110

1.6 km/h aus ESE

-0.9 C

-0.1 C

-0.1 C

-0.1 C

0 W/m

0.00 mm

07:35

0.1 C

1020.8 hpa

94 %

0.0 km/h aus 110

1.6 km/h aus ESE

-0.7 C

0.1 C

0.1 C

0.1 C

0 W/m

0.00 mm

07:40

0.3 C

1020.8 hpa

95 %

0.0 km/h aus 112

0.0 km/h aus ---

-0.4 C

0.2 C

0.3 C

0.2 C

0 W/m

0.00 mm

07:45

0.4 C

1020.8 hpa

95 %

0.0 km/h aus 112

0.0 km/h aus ---

-0.3 C

0.3 C

0.4 C

0.3 C

0 W/m

0.00 mm

07:50

0.5 C

1020.8 hpa

94 %

0.0 km/h aus 107

0.0 km/h aus ---

-0.4 C

0.4 C

0.5 C

0.4 C

0 W/m

0.00 mm

07:55

0.7 C

1020.8 hpa

95 %

0.0 km/h aus 108

0.0 km/h aus ---

0.0 C

0.6 C

0.7 C

0.6 C

0 W/m

0.00 mm

08:00

0.9 C

1020.8 hpa

95 %

0.0 km/h aus 109

3.2 km/h aus ESE

0.2 C

0.8 C

0.9 C

0.8 C

0 W/m

0.00 mm

08:05

1.1 C

1020.8 hpa

95 %

0.0 km/h aus 109

1.6 km/h aus ESE

0.4 C

1.1 C

1.1 C

1.1 C

0 W/m

0.00 mm

08:10

1.2 C

1020.8 hpa

95 %

0.0 km/h aus 110

1.6 km/h aus ESE

0.5 C

1.2 C

1.2 C

1.2 C

0 W/m

0.00 mm

08:15

1.3 C

1020.8 hpa

95 %

0.0 km/h aus 114

1.6 km/h aus ESE

0.6 C

1.3 C

1.3 C

1.3 C

0 W/m

0.00 mm

08:20

1.3 C

1020.8 hpa

95 %

0.0 km/h aus 108

1.6 km/h aus ESE

0.6 C

1.3 C

1.3 C

1.3 C

0 W/m

0.00 mm

08:25

1.3 C

1020.8 hpa

95 %

0.0 km/h aus 105

0.0 km/h aus ---

0.6 C

1.3 C

1.3 C

1.3 C

0 W/m

0.00 mm

08:30

1.6 C

1020.8 hpa

95 %

0.0 km/h aus 102

0.0 km/h aus ---

0.9 C

1.6 C

1.6 C

1.6 C

0 W/m

0.00 mm

08:35

2.1 C

1020.8 hpa

95 %

0.0 km/h aus 107

1.6 km/h aus ESE

1.3 C

2.1 C

2.1 C

2.1 C

0 W/m

0.00 mm

08:40

2.4 C

1020.8 hpa

95 %

0.0 km/h aus 107

3.2 km/h aus ESE

1.7 C

2.4 C

2.4 C

2.4 C

0 W/m

0.00 mm

08:45

2.7 C

1020.9 hpa

95 %

0.0 km/h aus 108

1.6 km/h aus ESE

1.9 C

2.7 C

2.7 C

2.7 C

0 W/m

0.00 mm

08:50

2.9 C

1020.9 hpa

95 %

0.0 km/h aus 107

0.0 km/h aus ---

2.2 C

2.9 C

2.9 C

2.9 C

0 W/m

0.00 mm

08:55

3.1 C

1020.9 hpa

95 %

0.0 km/h aus 103

0.0 km/h aus ---

2.3 C

3.1 C

3.1 C

3.1 C

0 W/m

0.00 mm

09:00

3.4 C

1020.8 hpa

95 %

0.0 km/h aus 110

0.0 km/h aus ---

2.7 C

3.4 C

3.4 C

3.4 C

0 W/m

0.00 mm

09:05

3.8 C

1020.8 hpa

95 %

0.0 km/h aus 100

0.0 km/h aus ---

3.1 C

3.8 C

3.8 C

3.8 C

0 W/m

0.00 mm

09:10

4.0 C

1020.8 hpa

95 %

0.0 km/h aus 95

0.0 km/h aus ---

3.3 C

4.0 C

4.0 C

4.0 C

0 W/m

0.00 mm

09:15

4.4 C

1020.9 hpa

95 %

0.0 km/h aus 112

0.0 km/h aus ---

3.7 C

4.4 C

4.4 C

4.4 C

0 W/m

0.00 mm

09:20

4.8 C

1020.9 hpa

95 %

0.0 km/h aus 108

0.0 km/h aus ---

4.1 C

4.9 C

4.8 C

4.9 C

0 W/m

0.00 mm

09:25

5.3 C

1020.9 hpa

94 %

0.0 km/h aus 109

1.6 km/h aus ESE

4.4 C

5.3 C

5.3 C

5.3 C

0 W/m

0.00 mm

09:30

5.7 C

1021.0 hpa

94 %

0.0 km/h aus 111

1.6 km/h aus ESE

4.8 C

5.8 C

5.7 C

5.8 C

0 W/m

0.00 mm

09:35

6.2 C

1021.0 hpa

92 %

0.0 km/h aus 111

1.6 km/h aus ESE

5.0 C

6.2 C

6.2 C

6.2 C

0 W/m

0.00 mm

09:40

6.6 C

1021.0 hpa

89 %

0.0 km/h aus 113

3.2 km/h aus ESE

4.9 C

6.7 C

6.6 C

6.7 C

0 W/m

0.00 mm

09:45

6.9 C

1021.1 hpa

87 %

1.6 km/h aus 113

6.4 km/h aus ESE

4.9 C

6.9 C

6.9 C

6.9 C

0 W/m

0.00 mm

09:50

7.2 C

1021.1 hpa

86 %

3.2 km/h aus 112

6.4 km/h aus ESE

5.0 C

7.2 C

7.2 C

7.2 C

0 W/m

0.00 mm

09:55

7.3 C

1021.1 hpa

85 %

1.6 km/h aus 115

4.8 km/h aus ESE

4.9 C

7.2 C

7.3 C

7.2 C

0 W/m

0.00 mm

10:00

7.3 C

1021.1 hpa

85 %

1.6 km/h aus 113

4.8 km/h aus ESE

5.0 C

7.3 C

7.3 C

7.3 C

0 W/m

0.00 mm

10:05

7.4 C

1021.1 hpa

84 %

3.2 km/h aus 114

6.4 km/h aus ESE

4.9 C

7.4 C

7.4 C

7.4 C

0 W/m

0.00 mm

10:10

7.7 C

1021.1 hpa

83 %

3.2 km/h aus 112

6.4 km/h aus ESE

5.0 C

7.7 C

7.7 C

7.7 C

0 W/m

0.00 mm

10:15

8.0 C

1021.2 hpa

83 %

3.2 km/h aus 113

8.0 km/h aus ESE

5.3 C

7.9 C

8.0 C

7.9 C

0 W/m

0.00 mm

10:20

8.5 C

1021.2 hpa

81 %

3.2 km/h aus 110

6.4 km/h aus ESE

5.4 C

8.4 C

8.5 C

8.4 C

0 W/m

0.00 mm

10:25

8.9 C

1021.2 hpa

80 %

3.2 km/h aus 110

8.0 km/h aus E

5.6 C

8.8 C

8.9 C

8.8 C

0 W/m

0.00 mm

10:30

9.2 C

1021.2 hpa

79 %

3.2 km/h aus 114

4.8 km/h aus E

5.7 C

9.1 C

9.2 C

9.1 C

0 W/m

0.00 mm

10:35

9.6 C

1021.2 hpa

78 %

4.8 km/h aus 111

9.7 km/h aus ENE

5.9 C

9.2 C

9.3 C

9.4 C

0 W/m

0.00 mm

10:40

9.9 C

1021.2 hpa

78 %

3.2 km/h aus 111

6.4 km/h aus NE

6.3 C

9.9 C

9.9 C

9.9 C

0 W/m

0.00 mm

10:45

10.1 C

1021.2 hpa

77 %

4.8 km/h aus 110

11.3 km/h aus NNE

6.3 C

9.9 C

9.9 C

10.1 C

0 W/m

0.00 mm

10:50

10.8 C

1021.2 hpa

73 %

4.8 km/h aus 114

11.3 km/h aus NNE

6.1 C

10.4 C

10.7 C

10.6 C

0 W/m

0.00 mm

10:55

11.4 C

1021.2 hpa

72 %

6.4 km/h aus 111

19.3 km/h aus NE

6.6 C

10.7 C

11.1 C

11.1 C

0 W/m

0.00 mm

11:00

11.6 C

1021.2 hpa

69 %

8.0 km/h aus 115

19.3 km/h aus NE

6.1 C

10.4 C

10.8 C

11.2 C

0 W/m

0.00 mm

11:05

11.7 C

1021.2 hpa

70 %

6.4 km/h aus 110

20.9 km/h aus NNE

6.4 C

10.9 C

11.3 C

11.3 C

0 W/m

0.00 mm

11:10

11.8 C

1021.2 hpa

67 %

12.9 km/h aus 115

20.9 km/h aus NE

5.8 C

9.7 C

10.2 C

11.3 C

0 W/m

0.00 mm

11:15

11.8 C

1021.3 hpa

68 %

9.7 km/h aus 112

25.7 km/h aus ENE

6.1 C

10.3 C

10.8 C

11.3 C

0 W/m

0.00 mm

11:20

12.1 C

1021.3 hpa

66 %

11.3 km/h aus 111

22.5 km/h aus NNE

5.9 C

10.4 C

10.9 C

11.6 C

0 W/m

0.00 mm

11:25

12.1 C

1021.3 hpa

65 %

9.7 km/h aus 111

19.3 km/h aus NE

5.7 C

10.6 C

11.1 C

11.5 C

0 W/m

0.00 mm

11:30

12.2 C

1021.3 hpa

63 %

9.7 km/h aus 117

19.3 km/h aus ENE

5.4 C

10.7 C

11.3 C

11.6 C

0 W/m

0.00 mm

11:35

12.2 C

1021.3 hpa

64 %

8.0 km/h aus 110

17.7 km/h aus ENE

5.6 C

11.1 C

11.6 C

11.7 C

0 W/m

0.00 mm

11:40

12.6 C

1021.3 hpa

65 %

8.0 km/h aus 112

17.7 km/h aus NE

6.2 C

11.5 C

12.1 C

12.1 C

0 W/m

0.00 mm

11:45

12.6 C

1021.3 hpa

61 %

9.7 km/h aus 114

19.3 km/h aus ENE

5.2 C

11.1 C

11.7 C

11.9 C

0 W/m

0.00 mm

11:50

12.6 C

1021.3 hpa

63 %

9.7 km/h aus 112

19.3 km/h aus NE

5.7 C

11.2 C

11.8 C

12.0 C

0 W/m

0.00 mm

11:55

12.8 C

1021.3 hpa

64 %

6.4 km/h aus 115

17.7 km/h aus NNE

6.1 C

11.9 C

12.6 C

12.2 C

0 W/m

0.00 mm

12:00

13.0 C

1021.3 hpa

59 %

11.3 km/h aus 112

17.7 km/h aus NE

5.2 C

11.3 C

12.1 C

12.3 C

0 W/m

0.00 mm

12:05

13.2 C

1021.3 hpa

59 %

8.0 km/h aus 114

24.1 km/h aus ENE

5.3 C

11.9 C

12.7 C

12.4 C

0 W/m

0.00 mm

12:10

13.3 C

1021.3 hpa

57 %

8.0 km/h aus 113

17.7 km/h aus ENE

4.9 C

12.1 C

12.9 C

12.4 C

0 W/m

0.00 mm

12:15

13.6 C

1021.1 hpa

59 %

6.4 km/h aus 112

14.5 km/h aus ENE

5.7 C

12.7 C

13.5 C

12.8 C

0 W/m

0.00 mm

12:20

13.7 C

1021.1 hpa

57 %

9.7 km/h aus 118

19.3 km/h aus E

5.3 C

12.2 C

13.1 C

12.8 C

0 W/m

0.00 mm

12:25

13.4 C

1021.1 hpa

57 %

12.9 km/h aus 112

22.5 km/h aus NE

5.0 C

11.3 C

12.1 C

12.6 C

0 W/m

0.00 mm

12:30

13.4 C

1020.9 hpa

58 %

6.4 km/h aus 114

17.7 km/h aus E

5.3 C

12.6 C

13.3 C

12.7 C

0 W/m

0.00 mm

12:35

13.8 C

1020.9 hpa

58 %

9.7 km/h aus 113

16.1 km/h aus E

5.7 C

12.4 C

13.2 C

13.0 C

0 W/m

0.00 mm

12:40

13.7 C

1020.9 hpa

56 %

12.9 km/h aus 113

24.1 km/h aus ENE

5.0 C

11.6 C

12.4 C

12.8 C

0 W/m

0.00 mm

12:45

13.4 C

1021.0 hpa

55 %

11.3 km/h aus 116

19.3 km/h aus E

4.6 C

11.7 C

12.6 C

12.6 C

0 W/m

0.00 mm

12:50

14.0 C

1021.0 hpa

57 %

8.0 km/h aus 113

16.1 km/h aus NE

5.6 C

12.8 C

13.7 C

13.2 C

0 W/m

0.00 mm

12:55

14.1 C

1021.0 hpa

54 %

14.5 km/h aus 115

24.1 km/h aus E

4.9 C

11.6 C

12.6 C

13.2 C

0 W/m

0.00 mm

13:00

13.9 C

1020.9 hpa

54 %

11.3 km/h aus 108

27.4 km/h aus NE

4.8 C

12.2 C

13.2 C

13.0 C

0 W/m

0.00 mm

13:05

14.1 C

1020.9 hpa

54 %

12.9 km/h aus 113

22.5 km/h aus NNE

4.9 C

12.1 C

13.0 C

13.2 C

0 W/m

0.00 mm

13:10

14.1 C

1020.9 hpa

54 %

12.9 km/h aus 115

27.4 km/h aus ENE

4.9 C

12.1 C

13.0 C

13.2 C

0 W/m

0.00 mm

13:15

13.9 C

1020.9 hpa

55 %

11.3 km/h aus 108

25.7 km/h aus NE

5.0 C

12.3 C

13.2 C

13.1 C

0 W/m

0.00 mm

13:20

14.3 C

1020.9 hpa

56 %

9.7 km/h aus 113

17.7 km/h aus ENE

5.6 C

12.9 C

13.8 C

13.4 C

0 W/m

0.00 mm

13:25

14.3 C

1020.9 hpa

58 %

9.7 km/h aus 117

20.9 km/h aus E

6.2 C

13.1 C

13.9 C

13.6 C

0 W/m

0.00 mm

13:30

14.7 C

1020.8 hpa

57 %

8.0 km/h aus 113

20.9 km/h aus NE

6.2 C

13.7 C

14.5 C

13.8 C

0 W/m

0.00 mm

13:35

14.6 C

1020.8 hpa

55 %

9.7 km/h aus 111

19.3 km/h aus ENE

5.7 C

13.3 C

14.2 C

13.7 C

0 W/m

0.00 mm

13:40

14.6 C

1020.8 hpa

56 %

11.3 km/h aus 111

22.5 km/h aus ENE

5.9 C

13.2 C

14.0 C

13.8 C

0 W/m

0.00 mm

13:45

14.7 C

1020.8 hpa

57 %

14.5 km/h aus 115

30.6 km/h aus NNE

6.3 C

12.4 C

13.3 C

13.9 C

0 W/m

0.00 mm

13:50

14.4 C

1020.8 hpa

57 %

12.9 km/h aus 117

20.9 km/h aus ENE

6.0 C

12.6 C

13.4 C

13.6 C

0 W/m

0.00 mm

13:55

14.3 C

1020.8 hpa

57 %

11.3 km/h aus 115

22.5 km/h aus NE

5.9 C

12.8 C

13.7 C

13.5 C

0 W/m

0.00 mm

14:00

14.2 C

1020.7 hpa

57 %

8.0 km/h aus 115

19.3 km/h aus NE

5.8 C

13.1 C

13.9 C

13.4 C

0 W/m

0.00 mm

14:05

14.6 C

1020.7 hpa

57 %

4.8 km/h aus 114

9.7 km/h aus N

6.2 C

13.8 C

14.6 C

13.8 C

0 W/m

0.00 mm

14:10

14.5 C

1020.7 hpa

57 %

8.0 km/h aus 113

20.9 km/h aus ENE

6.1 C

13.4 C

14.3 C

13.7 C

0 W/m

0.00 mm

14:15

14.4 C

1020.6 hpa

56 %

9.7 km/h aus 115

19.3 km/h aus NE

5.8 C

13.2 C

14.0 C

13.6 C

0 W/m

0.00 mm

14:20

14.4 C

1020.6 hpa

56 %

6.4 km/h aus 113

11.3 km/h aus NNE

5.8 C

13.6 C

14.4 C

13.6 C

0 W/m

0.00 mm

14:25

14.5 C

1020.6 hpa

56 %

9.7 km/h aus 114

19.3 km/h aus NE

5.8 C

13.2 C

14.1 C

13.7 C

0 W/m

0.00 mm

14:30

15.0 C

1020.3 hpa

54 %

9.7 km/h aus 113

17.7 km/h aus ENE

5.8 C

13.7 C

14.7 C

14.1 C

0 W/m

0.00 mm

14:35

15.0 C

1020.3 hpa

56 %

12.9 km/h aus 114

22.5 km/h aus ENE

6.3 C

13.2 C

14.1 C

14.2 C

0 W/m

0.00 mm

14:40

15.0 C

1020.3 hpa

53 %

9.7 km/h aus 110

20.9 km/h aus ENE

5.5 C

13.7 C

14.7 C

14.0 C

0 W/m

0.00 mm

14:45

15.3 C

1020.3 hpa

54 %

12.9 km/h aus 113

24.1 km/h aus NNE

6.1 C

13.5 C

14.4 C

14.4 C

0 W/m

0.00 mm

14:50

15.2 C

1020.3 hpa

54 %

8.0 km/h aus 114

17.7 km/h aus ENE

6.0 C

14.2 C

15.2 C

14.3 C

0 W/m

0.00 mm

14:55

15.4 C

1020.3 hpa

55 %

11.3 km/h aus 117

27.4 km/h aus NE

6.4 C

14.1 C

15.0 C

14.6 C

0 W/m

0.00 mm

15:00

15.1 C

1020.2 hpa

54 %

11.3 km/h aus 117

27.4 km/h aus ENE

5.8 C

13.6 C

14.5 C

14.1 C

0 W/m

0.00 mm

15:05

15.0 C

1020.2 hpa

55 %

11.3 km/h aus 117

24.1 km/h aus NE

6.0 C

13.6 C

14.4 C

14.1 C

0 W/m

0.00 mm

15:10

15.0 C

1020.2 hpa

56 %

8.0 km/h aus 116

22.5 km/h aus ENE

6.3 C

14.1 C

14.9 C

14.2 C

0 W/m

0.00 mm

15:15

15.3 C

1020.0 hpa

54 %

11.3 km/h aus 117

24.1 km/h aus ENE

6.1 C

13.9 C

14.8 C

14.4 C

0 W/m

0.00 mm

15:20

15.5 C

1020.0 hpa

54 %

12.9 km/h aus 117

24.1 km/h aus ENE

6.2 C

13.7 C

14.7 C

14.6 C

0 W/m

0.00 mm

15:25

15.4 C

1020.0 hpa

54 %

9.7 km/h aus 116

24.1 km/h aus E

6.1 C

14.2 C

15.1 C

14.4 C

0 W/m

0.00 mm

15:30

15.6 C

1020.1 hpa

53 %

14.5 km/h aus 118

29.0 km/h aus ENE

6.0 C

13.3 C

14.3 C

14.6 C

0 W/m

0.00 mm

15:35

15.3 C

1020.1 hpa

55 %

9.7 km/h aus 117

20.9 km/h aus NE

6.3 C

14.2 C

15.1 C

14.4 C

0 W/m

0.00 mm

15:40

15.4 C

1020.1 hpa

57 %

8.0 km/h aus 116

20.9 km/h aus NE

7.0 C

14.6 C

15.4 C

14.6 C

0 W/m

0.00 mm

15:45

15.8 C

1019.8 hpa

53 %

9.7 km/h aus 117

19.3 km/h aus NE

6.2 C

14.6 C

15.6 C

14.8 C

0 W/m

0.00 mm

15:50

16.0 C

1019.8 hpa

55 %

12.9 km/h aus 116

33.8 km/h aus NE

7.0 C

14.4 C

15.3 C

15.1 C

0 W/m

0.00 mm

15:55

15.8 C

1019.8 hpa

54 %

17.7 km/h aus 117

32.2 km/h aus NNE

6.5 C

12.9 C

13.8 C

14.9 C

0 W/m

0.00 mm

16:00

15.7 C

1019.7 hpa

54 %

14.5 km/h aus 117

27.4 km/h aus NNE

6.4 C

13.4 C

14.4 C

14.7 C

0 W/m

0.00 mm

16:05

15.6 C

1019.7 hpa

53 %

11.3 km/h aus 117

22.5 km/h aus ENE

6.0 C

14.1 C

15.1 C

14.6 C

0 W/m

0.00 mm

16:10

15.6 C

1019.7 hpa

54 %

8.0 km/h aus 117

19.3 km/h aus NE

6.3 C

14.6 C

15.6 C

14.6 C

0 W/m

0.00 mm

16:15

16.0 C

1019.7 hpa

53 %

9.7 km/h aus 116

20.9 km/h aus NE

6.4 C

14.9 C

15.9 C

15.0 C

0 W/m

0.00 mm

16:20

16.1 C

1019.7 hpa

53 %

14.5 km/h aus 116

25.7 km/h aus NE

6.5 C

13.9 C

14.9 C

15.1 C

0 W/m

0.00 mm

16:25

16.1 C

1019.7 hpa

52 %

9.7 km/h aus 116

24.1 km/h aus ENE

6.2 C

14.9 C

15.9 C

15.1 C

0 W/m

0.00 mm

16:30

15.8 C

1019.6 hpa

53 %

12.9 km/h aus 117

24.1 km/h aus NE

6.2 C

14.0 C

15.0 C

14.8 C

0 W/m

0.00 mm

16:35

15.8 C

1019.6 hpa

53 %

11.3 km/h aus 117

20.9 km/h aus ENE

6.3 C

14.4 C

15.4 C

14.8 C

0 W/m

0.00 mm

16:40

16.1 C

1019.6 hpa

54 %

8.0 km/h aus 117

17.7 km/h aus ENE

6.7 C

15.1 C

16.1 C

15.1 C

0 W/m

0.00 mm

16:45

16.1 C

1019.3 hpa

53 %

12.9 km/h aus 117

25.7 km/h aus ENE

6.5 C

14.4 C

15.4 C

15.1 C

0 W/m

0.00 mm

16:50

16.2 C

1019.3 hpa

53 %

11.3 km/h aus 117

22.5 km/h aus NE

6.6 C

14.8 C

15.8 C

15.2 C

0 W/m

0.00 mm

16:55

16.2 C

1019.3 hpa

52 %

11.3 km/h aus 116

29.0 km/h aus E

6.3 C

14.8 C

15.8 C

15.2 C

0 W/m

0.00 mm

17:00

15.9 C

1019.3 hpa

52 %

12.9 km/h aus 117

25.7 km/h aus NE

6.1 C

14.2 C

15.2 C

14.9 C

0 W/m

0.00 mm

17:05

15.9 C

1019.3 hpa

52 %

11.3 km/h aus 117

22.5 km/h aus ENE

6.0 C

14.5 C

15.5 C

14.9 C

0 W/m

0.00 mm

17:10

15.9 C

1019.3 hpa

53 %

11.3 km/h aus 116

22.5 km/h aus NNE

6.4 C

14.6 C

15.6 C

14.9 C

0 W/m

0.00 mm

17:15

15.9 C

1019.2 hpa

54 %

9.7 km/h aus 117

24.1 km/h aus ENE

6.6 C

14.8 C

15.8 C

15.0 C

0 W/m

0.00 mm

17:20

16.0 C

1019.2 hpa

53 %

14.5 km/h aus 117

27.4 km/h aus ENE

6.4 C

13.8 C

14.8 C

15.0 C

0 W/m

0.00 mm

17:25

16.0 C

1019.2 hpa

53 %

9.7 km/h aus 117

19.3 km/h aus NE

6.4 C

14.9 C

15.9 C

15.0 C

0 W/m

0.00 mm

17:30

15.9 C

1019.2 hpa

53 %

11.3 km/h aus 117

29.0 km/h aus NE

6.3 C

14.5 C

15.5 C

14.9 C

0 W/m

0.00 mm

17:35

15.8 C

1019.2 hpa

53 %

14.5 km/h aus 118

27.4 km/h aus NE

6.3 C

13.6 C

14.6 C

14.8 C

0 W/m

0.00 mm

17:40

15.8 C

1019.2 hpa

52 %

11.3 km/h aus 117

22.5 km/h aus ENE

6.0 C

14.4 C

15.4 C

14.8 C

0 W/m

0.00 mm

17:45

15.9 C

1019.2 hpa

54 %

8.0 km/h aus 117

20.9 km/h aus ENE

6.6 C

15.0 C

15.9 C

15.0 C

0 W/m

0.00 mm

17:50

15.9 C

1019.2 hpa

52 %

11.3 km/h aus 117

22.5 km/h aus ENE

6.1 C

14.6 C

15.6 C

14.9 C

0 W/m

0.00 mm

17:55

15.8 C

1019.2 hpa

54 %

8.0 km/h aus 116

20.9 km/h aus ENE

6.5 C

14.8 C

15.8 C

14.8 C

0 W/m

0.00 mm

18:00

15.9 C

1019.2 hpa

53 %

9.7 km/h aus 117

16.1 km/h aus ENE

6.3 C

14.7 C

15.7 C

14.9 C

0 W/m

0.00 mm

18:05

15.8 C

1019.2 hpa

54 %

8.0 km/h aus 116

22.5 km/h aus NE

6.5 C

14.8 C

15.8 C

14.8 C

0 W/m

0.00 mm

18:10

15.7 C

1019.2 hpa

53 %

14.5 km/h aus 117

24.1 km/h aus NNE

6.1 C

13.4 C

14.4 C

14.7 C

0 W/m

0.00 mm

18:15

15.6 C

1019.2 hpa

53 %

11.3 km/h aus 117

24.1 km/h aus NE

6.0 C

14.1 C

15.1 C

14.6 C

0 W/m

0.00 mm

18:20

15.5 C

1019.2 hpa

55 %

8.0 km/h aus 116

17.7 km/h aus NNE

6.5 C

14.6 C

15.5 C

14.6 C

0 W/m

0.00 mm

18:25

15.5 C

1019.2 hpa

54 %

11.3 km/h aus 116

22.5 km/h aus ESE

6.2 C

14.1 C

15.1 C

14.6 C

0 W/m

0.00 mm

18:30

15.4 C

1019.2 hpa

54 %

11.3 km/h aus 117

22.5 km/h aus ENE

6.2 C

14.1 C

15.0 C

14.5 C

0 W/m

0.00 mm

18:35

15.3 C

1019.2 hpa

55 %

9.7 km/h aus 117

20.9 km/h aus ENE

6.3 C

14.2 C

15.1 C

14.4 C

0 W/m

0.00 mm

18:40

15.2 C

1019.2 hpa

55 %

11.3 km/h aus 117

25.7 km/h aus ENE

6.2 C

13.8 C

14.7 C

14.3 C

0 W/m

0.00 mm

18:45

15.1 C

1019.2 hpa

55 %

9.7 km/h aus 115

22.5 km/h aus NE

6.1 C

13.8 C

14.7 C

14.2 C

0 W/m

0.00 mm

18:50

15.0 C

1019.2 hpa

55 %

11.3 km/h aus 117

19.3 km/h aus ENE

6.0 C

13.6 C

14.4 C

14.1 C

0 W/m

0.00 mm

18:55

15.0 C

1019.2 hpa

55 %

8.0 km/h aus 115

16.1 km/h aus NE

6.0 C

14.0 C

14.9 C

14.1 C

0 W/m

0.00 mm

19:00

14.8 C

1019.2 hpa

56 %

6.4 km/h aus 116

14.5 km/h aus ENE

6.1 C

13.9 C

14.8 C

13.9 C

0 W/m

0.00 mm

19:05

14.7 C

1019.2 hpa

56 %

6.4 km/h aus 117

11.3 km/h aus E

6.0 C

13.8 C

14.7 C

13.8 C

0 W/m

0.00 mm

19:10

14.6 C

1019.2 hpa

56 %

9.7 km/h aus 116

20.9 km/h aus ENE

5.9 C

13.3 C

14.1 C

13.7 C

0 W/m

0.00 mm

19:15

14.4 C

1019.3 hpa

57 %

9.7 km/h aus 117

19.3 km/h aus ENE

6.0 C

13.2 C

14.0 C

13.6 C

0 W/m

0.00 mm

19:20

14.3 C

1019.3 hpa

57 %

6.4 km/h aus 117

14.5 km/h aus ENE

5.9 C

13.4 C

14.3 C

13.4 C

0 W/m

0.00 mm

19:25

14.1 C

1019.3 hpa

58 %

6.4 km/h aus 117

11.3 km/h aus ENE

5.9 C

13.3 C

14.1 C

13.3 C

0 W/m

0.00 mm

19:30

13.8 C

1019.3 hpa

59 %

6.4 km/h aus 117

14.5 km/h aus NE

5.9 C

13.0 C

13.8 C

13.0 C

0 W/m

0.00 mm

19:35

13.6 C

1019.3 hpa

59 %

4.8 km/h aus 115

8.0 km/h aus ENE

5.7 C

12.8 C

13.6 C

12.8 C

0 W/m

0.00 mm

19:40

13.4 C

1019.3 hpa

59 %

4.8 km/h aus 117

11.3 km/h aus NE

5.6 C

12.7 C

13.4 C

12.7 C

0 W/m

0.00 mm

19:45

13.4 C

1019.5 hpa

59 %

6.4 km/h aus 117

16.1 km/h aus ENE

5.5 C

12.5 C

13.3 C

12.6 C

0 W/m

0.00 mm

19:50

13.2 C

1019.5 hpa

61 %

4.8 km/h aus 117

9.7 km/h aus ENE

5.9 C

12.6 C

13.2 C

12.6 C

0 W/m

0.00 mm

19:55

13.1 C

1019.5 hpa

61 %

4.8 km/h aus 116

9.7 km/h aus ENE

5.7 C

12.4 C

13.1 C

12.4 C

0 W/m

0.00 mm

20:00

12.8 C

1019.7 hpa

62 %

4.8 km/h aus 116

9.7 km/h aus NE

5.7 C

12.2 C

12.8 C

12.2 C

0 W/m

0.00 mm

20:05

12.7 C

1019.7 hpa

63 %

4.8 km/h aus 116

11.3 km/h aus ENE

5.8 C

12.1 C

12.7 C

12.1 C

0 W/m

0.00 mm

20:10

12.4 C

1019.7 hpa

64 %

3.2 km/h aus 116

6.4 km/h aus NE

5.8 C

11.9 C

12.4 C

11.9 C

0 W/m

0.00 mm

20:15

12.2 C

1019.7 hpa

65 %

3.2 km/h aus 117

6.4 km/h aus NE

5.8 C

11.6 C

12.2 C

11.6 C

0 W/m

0.00 mm

20:20

12.1 C

1019.7 hpa

65 %

3.2 km/h aus 114

6.4 km/h aus NE

5.7 C

11.6 C

12.1 C

11.6 C

0 W/m

0.00 mm

20:25

11.8 C

1019.7 hpa

66 %

1.6 km/h aus 115

4.8 km/h aus NE

5.7 C

11.3 C

11.8 C

11.3 C

0 W/m

0.00 mm

20:30

11.4 C

1019.9 hpa

68 %

1.6 km/h aus 117

4.8 km/h aus NE

5.7 C

11.1 C

11.4 C

11.1 C

0 W/m

0.00 mm

20:35

11.2 C

1019.9 hpa

70 %

1.6 km/h aus 116

4.8 km/h aus NE

5.9 C

10.8 C

11.2 C

10.8 C

0 W/m

0.00 mm

20:40

10.9 C

1019.9 hpa

71 %

3.2 km/h aus 116

4.8 km/h aus NE

5.9 C

10.7 C

10.9 C

10.7 C

0 W/m

0.00 mm

20:45

10.7 C

1020.2 hpa

72 %

3.2 km/h aus 118

4.8 km/h aus NE

5.9 C

10.4 C

10.7 C

10.4 C

0 W/m

0.00 mm

20:50

10.7 C

1020.2 hpa

73 %

3.2 km/h aus 115

8.0 km/h aus NE

6.0 C

10.4 C

10.7 C

10.4 C

0 W/m

0.00 mm

20:55

10.7 C

1020.2 hpa

73 %

4.8 km/h aus 117

9.7 km/h aus NE

6.1 C

10.4 C

10.6 C

10.5 C

0 W/m

0.00 mm

21:00

10.8 C

1020.3 hpa

73 %

3.2 km/h aus 116

8.0 km/h aus NE

6.2 C

10.6 C

10.8 C

10.6 C

0 W/m

0.00 mm

21:05

10.8 C

1020.3 hpa

72 %

3.2 km/h aus 116

6.4 km/h aus NE

5.9 C

10.5 C

10.8 C

10.5 C

0 W/m

0.00 mm

21:10

10.6 C

1020.3 hpa

73 %

3.2 km/h aus 117

6.4 km/h aus NE

6.0 C

10.4 C

10.6 C

10.4 C

0 W/m

0.00 mm

21:15

10.4 C

1020.3 hpa

73 %

3.2 km/h aus 116

6.4 km/h aus NE

5.8 C

10.2 C

10.4 C

10.2 C

0 W/m

0.00 mm

21:20

10.4 C

1020.3 hpa

73 %

4.8 km/h aus 116

9.7 km/h aus ENE

5.8 C

10.1 C

10.3 C

10.2 C

0 W/m

0.00 mm

21:25

10.3 C

1020.3 hpa

74 %

3.2 km/h aus 115

8.0 km/h aus ENE

5.9 C

10.2 C

10.3 C

10.2 C

0 W/m

0.00 mm

21:30

10.3 C

1020.4 hpa

74 %

3.2 km/h aus 117

9.7 km/h aus ENE

5.9 C

10.2 C

10.3 C

10.2 C

0 W/m

0.00 mm

21:35

10.3 C

1020.4 hpa

74 %

3.2 km/h aus 116

6.4 km/h aus ENE

5.8 C

10.1 C

10.3 C

10.1 C

0 W/m

0.00 mm

21:40

10.2 C

1020.4 hpa

74 %

3.2 km/h aus 117

8.0 km/h aus ENE

5.7 C

10.0 C

10.2 C

10.0 C

0 W/m

0.00 mm

21:45

10.1 C

1020.6 hpa

75 %

3.2 km/h aus 117

8.0 km/h aus ENE

5.9 C

10.0 C

10.1 C

10.0 C

0 W/m

0.00 mm

21:50

10.1 C

1020.6 hpa

75 %

3.2 km/h aus 117

6.4 km/h aus ENE

5.8 C

9.9 C

10.1 C

9.9 C

0 W/m

0.00 mm

21:55

9.8 C

1020.6 hpa

76 %

3.2 km/h aus 116

6.4 km/h aus ENE

5.7 C

9.7 C

9.8 C

9.7 C

0 W/m

0.00 mm

22:00

9.6 C

1020.7 hpa

77 %

4.8 km/h aus 114

8.0 km/h aus ENE

5.7 C

9.2 C

9.3 C

9.4 C

0 W/m

0.00 mm

22:05

9.6 C

1020.7 hpa

78 %

4.8 km/h aus 115

9.7 km/h aus NE

5.9 C

9.2 C

9.3 C

9.4 C

0 W/m

0.00 mm

22:10

9.7 C

1020.7 hpa

78 %

4.8 km/h aus 117

11.3 km/h aus NE

6.0 C

9.4 C

9.4 C

9.6 C

0 W/m

0.00 mm

22:15

9.8 C

1020.7 hpa

77 %

4.8 km/h aus 116

14.5 km/h aus ENE

5.9 C

9.4 C

9.6 C

9.7 C

0 W/m

0.00 mm

22:20

9.8 C

1020.7 hpa

78 %

4.8 km/h aus 117

9.7 km/h aus NE

6.1 C

9.5 C

9.6 C

9.7 C

0 W/m

0.00 mm

22:25

9.7 C

1020.7 hpa

78 %

6.4 km/h aus 116

9.7 km/h aus NE

6.1 C

9.0 C

9.1 C

9.7 C

0 W/m

0.00 mm

22:30

9.7 C

1020.7 hpa

78 %

6.4 km/h aus 116

9.7 km/h aus ENE

6.0 C

8.9 C

9.0 C

9.6 C

0 W/m

0.00 mm

22:35

9.5 C

1020.7 hpa

78 %

6.4 km/h aus 117

11.3 km/h aus NNE

5.9 C

8.7 C

8.8 C

9.4 C

0 W/m

0.00 mm

22:40

9.4 C

1020.7 hpa

79 %

6.4 km/h aus 117

11.3 km/h aus NE

6.0 C

8.7 C

8.7 C

9.4 C

0 W/m

0.00 mm

22:45

9.4 C

1020.7 hpa

80 %

8.0 km/h aus 117

17.7 km/h aus NE

6.2 C

8.3 C

8.3 C

9.4 C

0 W/m

0.00 mm

22:50

9.4 C

1020.7 hpa

80 %

6.4 km/h aus 117

14.5 km/h aus NE

6.1 C

8.6 C

8.7 C

9.3 C

0 W/m

0.00 mm

22:55

9.3 C

1020.7 hpa

81 %

6.4 km/h aus 117

12.9 km/h aus NNE

6.2 C

8.6 C

8.6 C

9.3 C

0 W/m

0.00 mm

23:00

9.3 C

1020.8 hpa

81 %

6.4 km/h aus 117

11.3 km/h aus NE

6.2 C

8.5 C

8.6 C

9.2 C

0 W/m

0.00 mm

23:05

9.3 C

1020.8 hpa

82 %

4.8 km/h aus 116

11.3 km/h aus NE

6.4 C

9.0 C

9.0 C

9.3 C

0 W/m

0.00 mm

23:10

9.2 C

1020.8 hpa

82 %

6.4 km/h aus 117

14.5 km/h aus NE

6.3 C

8.5 C

8.5 C

9.2 C

0 W/m

0.00 mm

23:15

9.2 C

1020.8 hpa

82 %

6.4 km/h aus 117

17.7 km/h aus NE

6.3 C

8.5 C

8.5 C

9.2 C

0 W/m

0.00 mm

23:20

9.2 C

1020.8 hpa

83 %

6.4 km/h aus 117

17.7 km/h aus NE

6.5 C

8.5 C

8.5 C

9.2 C

0 W/m

0.00 mm

23:25

9.2 C

1020.8 hpa

83 %

6.4 km/h aus 117

14.5 km/h aus NE

6.5 C

8.5 C

8.5 C

9.2 C

0 W/m

0.00 mm

23:30

9.1 C

1020.9 hpa

83 %

6.4 km/h aus 117

14.5 km/h aus NE

6.4 C

8.3 C

8.3 C

9.1 C

0 W/m

0.00 mm

23:35

9.1 C

1020.9 hpa

83 %

6.4 km/h aus 116

16.1 km/h aus NE

6.3 C

8.3 C

8.3 C

9.1 C

0 W/m

0.00 mm

23:40

9.0 C

1020.9 hpa

84 %

8.0 km/h aus 116

20.9 km/h aus NNE

6.4 C

7.8 C

7.8 C

9.0 C

0 W/m

0.00 mm

23:45

9.0 C

1020.8 hpa

84 %

8.0 km/h aus 117

16.1 km/h aus NE

6.4 C

7.8 C

7.8 C

9.0 C

0 W/m

0.00 mm

23:50

8.9 C

1020.8 hpa

84 %

8.0 km/h aus 115

16.1 km/h aus ENE

6.4 C

7.8 C

7.8 C

8.9 C

0 W/m

0.00 mm

23:55

8.8 C

1020.8 hpa

84 %

8.0 km/h aus 118

16.1 km/h aus NE

6.3 C

7.7 C

7.7 C

8.8 C

0 W/m

0.00 mm